Voltar ao catálogo

SL-16 DEB

AtivoLEO
NORAD 28042·DEBRIS·🇷🇺 Russia

Lançado Dec 25, 1992 de Baikonur Cosmodrome

Loading…

Próximas Passagens (próximas 24 horas)

TLE

AtualizadoSource: Space-Track

Época: Sep 13, 2026, 10:05 UTC

1 28042U 92093JP  26256.42015225  .00000521  00000-0  29149-3 0  9997
2 28042  70.8738 160.9700 0071991 335.9617 139.9802 14.14166689525320

Acompanhe SL-16 DEB em tempo real com AllMySat

Download on the App Store